Regional Weather Roundup
Issued by NWS Boston, MA

Current Version | Previous Version | Text Only | Print | Product List | Glossary Off
Versions: 1 2 3 4 5 6 7 8 9 10 11 12 13 14 15 16 17 18 19 20 21 22 23 24 25 26 27 28 29 30 31 32 33 34 35 36 37 38 39 40 41 42 43 44 45 46 47 48 49 50
145 ASUS41 KBOX 232010 RWRBOX REGIONAL WEATHER ROUNDUP NATIONAL WEATHER SERVICE TAUNTON MA 400 PM EDT SUN APR 23 2017 NOTE: "FAIR" INDICATES FEW OR NO CLOUDS BELOW 12,000 FEET WITH NO SIGNIFICANT WEATHER AND/OR OBSTRUCTIONS TO VISIBILITY. MAZALL-232100- EASTERN MASSACHUSETTS CITY SKY/WX TMP DP RH WIND PRES REMARKS BOSTON MOSUNNY 54 39 57 E14 30.04F BEVERLY SUNNY 53 39 59 SE12 30.04F LAWRENCE SUNNY 67 38 34 VRB3 30.03F BEDFORD SUNNY 65 33 30 CALM 30.01F BLUE HILL N/A 65 35 33 SW7 30.02F NORWOOD SUNNY 67 35 30 VRB7 30.02F MARSHFIELD SUNNY 54 39 58 SE14 30.06F PLYMOUTH SUNNY 59 38 45 SE10 30.05F TAUNTON SUNNY 63 42 46 S10 30.04F NEW BEDFORD SUNNY 57 42 57 S13 30.06F $$ MAZALL-232100- CAPE COD AND THE ISLANDS CITY SKY/WX TMP DP RH WIND PRES REMARKS FALMOUTH CLOUDY 55 41 58 MISG 30.08S HYANNIS CLOUDY 52 41 66 S8 30.07S CHATHAM CLOUDY 53 41 63 SE6 30.09F PROVINCETOWN SUNNY 55 39 54 S6 30.07F NANTUCKET SUNNY 49 41 74 SE12 30.09F MARTHAS VNYRD CLOUDY 54 40 59 NE12 30.08F $$ MAZALL-232100- CENTRAL AND WESTERN MASSACHUSETTS CITY SKY/WX TMP DP RH WIND PRES REMARKS WORCESTER SUNNY 63 29 27 W5 30.02F FITCHBURG SUNNY 70 32 24 VRB3 30.00F ORANGE SUNNY 67 26 21 NW7 30.00F SPRINGFIELD SUNNY 68 30 24 S7 30.00F WESTFIELD SUNNY 68 35 29 SE5 30.00F NORTH ADAMS SUNNY 66 32 28 N7 30.00F PITTSFIELD SUNNY 64 24 21 NW8 30.01F $$ RIZALL-232100- RHODE ISLAND CITY SKY/WX TMP DP RH WIND PRES REMARKS PROVIDENCE MOSUNNY 57 41 55 SE16 30.07S NEWPORT SUNNY 52 41 66 S13 30.08S BLOCK ISLAND CLOUDY 51 40 65 S13 30.09F SMITHFIELD SUNNY 63 40 42 VRB6 30.04F WESTERLY SUNNY 54 40 59 S10G21 30.09F $$ CTZALL-232100- CONNECTICUT CITY SKY/WX TMP DP RH WIND PRES REMARKS BRADLEY INTL MOSUNNY 68 34 28 VRB7 30.02F HARTFORD SUNNY 66 34 30 S3 30.03F BRIDGEPORT MOSUNNY 61 37 41 S9 30.07F DANBURY CLOUDY 64 35 34 SW6 30.05F GROTON SUNNY 53 41 63 S12 30.08S NEW HAVEN PTSUNNY 56 39 53 SW9 30.07F CHESTER FAIR 57 36 44 S8G14 30.06S MERIDEN CLOUDY 65 39 38 S12G18 30.04F WILLIMANTIC SUNNY 69 34 27 CALM 30.03F OXFORD PTSUNNY 64 37 36 VRB5 30.04F $$ MEZ002-015-021-024-NHZ003-005-008-011-012-014-VTZ005-008-232100- NORTHERN NEW ENGLAND CITY SKY/WX TMP DP RH WIND PRES REMARKS PORTLAND ME SUNNY 53 35 50 S14 30.02F BANGOR ME MOSUNNY 58 36 43 VRB3 29.98F CONCORD NH SUNNY 68 29 23 SW7 29.99F MANCHESTER NH MOSUNNY 67 30 25 S9 29.99F NASHUA NH SUNNY 67 37 33 CALM 30.00F PORTSMOUTH NH MOSUNNY 56 37 48 SE15 30.01F JAFFREY NH SUNNY 65 27 23 W6 30.01F KEENE NH SUNNY 67 33 28 S5 29.99F BURLINGTON VT MOSUNNY 65 33 30 SE8 29.96 MT. WASHINGTON MOSUNNY 34 19 55 W23G36 N/A WCI 22 $$ NYZ052-076-232100- EASTERN NEW YORK CITY SKY/WX TMP DP RH WIND PRES REMARKS ALBANY MOSUNNY 68 32 26 VRB5 30.02F NEW YORK CITY CLOUDY 63 37 38 S12 30.06F $$ ANZALL-232100- MARINE OBSERVATIONS STATION/POSITION TIME TEMP WIND PRES VSBY WAVE AIR SEA DIR/SP/G HT/PER (UTC) (F) (DEG/KT/KT) (MB) (MI) (FT/S) BOSTON BUOY 1850 47 47 120/ 10/ 12 1017.7 5/12 BUZZARDS BAY 1900 47 170/ 12/ 14 1019.3F NANTUCKET SOUND 1950 47 1018.7F 1/13 MASS BAY-STELLWA 1904 47 46 130/ 10/ 12 1017.6F 5/12 ISLE OF SHOALS 1900 46 150/ 19/ 20 1017.3F S OF BLOCK IS 1955 48 N/A 3/11 $$ ......................KEY......................... SKY/WX - SKY CONDITION/PRESENT WEATHER TMP - TEMPERATURE IN FAHRENHEIT DWPT - DEWPOINT IN FAHRENHEIT RH - RELATIVE HUMIDITY IN PERCENT WIND - DIRECTION AND SPEED IN MPH PRES - MEAN SEA LEVEL PRESSURE IN INCHES OF HG WCI - WIND CHILL INDEX VSB - VISIBILITY IN MILES HX - HEAT INDEX TC - TEMPERATURE IN CELSIUS VRB - VARIABLE WIND DIRECTION N/A - NOT AVAILABLE

USA.gov is the U.S. government's official web portal to all federal, state and local government web resources and services.